Rome Ciampino, Italy

9:18 PM CET on February 19, 2018 (GMT +0100)
Ciampino

Weather History for LIRA - March, 2014

Change the Weather History Date:

Monday, March 17, 2014

  Actual Average Record
Temperature  
Mean Temperature 54 °F -  
Max Temperature 66 °F 62 °F 67 °F (2017)
Min Temperature 42 °F 44 °F 37 °F (1998)
Degree Days  
Heating Degree Days 11    
Growing Degree Days 4 (Base 50)    
Moisture  
Dew Point 49 °F    
Average Humidity 81    
Maximum Humidity 100    
Minimum Humidity 60    
Precipitation  
Precipitation 0.00 in 0.09 in - ()
Sea Level Pressure  
Sea Level Pressure 30.13 in    
Wind  
Wind Speed 2 mph ()    
Max Wind Speed 8 mph    
Max Gust Speed -    
Visibility 4.9 miles    
Events      
Averages and records for this station are not official NWS values.
T = Trace of Precipitation, MM = Missing Value Source: Averaged Metar Reports

Daily Weather History Graph

Daily Weather History Graph

Search for Another Location

Airport or City:

Trip Planner

Search our weather history database for the weather conditions in past years. The results will help you decide how hot, cold, wet, or windy it might be!

Date:

Astronomy

Mar. 17, 2014 Rise Set
Actual Time 6:18 AM CET 6:18 PM CET
Civil Twilight 5:50 AM CET 6:46 PM CET
Nautical Twilight 5:18 AM CET 7:18 PM CET
Astronomical Twilight 4:45 AM CET 7:51 PM CET
Moon 7:19 PM CET (3/17) 6:24 AM CET (3/17)
Length of Visible Light 12h 55m
Length of Day
11h 59m
Waxing Gibbous, 99% of the Moon is Illuminated
Mar 17
Waxing Gibbous
Mar 24
Last Quarter
Mar 30
New
Apr 7
First Quarter
Apr 15
Full

Hourly Weather History & Observations

Time (CET) Temp. Windchill Dew Point Humidity Pressure Visibility Wind Dir Wind Speed Gust Speed Precip Events Conditions
12:15 AM 50.0 °F - 44.6 °F 82% 30.06 in - West 1.2 mph - N/A   Clear
12:45 AM 50.0 °F - 44.6 °F 82% 30.06 in - West 1.2 mph - N/A   Clear
1:00 AM 50 °F - 44 °F 74% 30.09 in 6 mi West 1.2 mph - -  
1:15 AM 48.2 °F - 44.6 °F 87% 30.06 in - Calm Calm - N/A   Clear
1:45 AM 46.4 °F - 42.8 °F 87% 30.06 in - Calm Calm - N/A   Clear
2:15 AM 46.4 °F - 44.6 °F 93% 30.06 in - Calm Calm - N/A   Clear
2:45 AM 46.4 °F 45.2 °F 42.8 °F 87% 30.06 in - NE 3.5 mph - N/A   Clear
3:15 AM 46.4 °F - 44.6 °F 93% 30.06 in - Calm Calm - N/A   Clear
3:45 AM 46.4 °F - 44.6 °F 93% 30.06 in - Calm Calm - N/A   Clear
4:00 AM 47 °F - 44 °F 85% 30.09 in 6 mi Calm Calm - -  
4:15 AM 46.4 °F - 42.8 °F 87% 30.06 in - North 1.2 mph - N/A   Clear
4:45 AM 44.6 °F - 42.8 °F 93% 30.06 in - Calm Calm - N/A   Clear
5:15 AM 42.8 °F - 41.0 °F 93% 30.06 in - Calm Calm - N/A   Clear
5:45 AM 42.8 °F - 42.8 °F 100% 30.06 in - Calm Calm - N/A   Clear
6:15 AM 42.8 °F - 41.0 °F 93% 30.06 in - Calm Calm - N/A   Clear
6:45 AM 42.8 °F - 41.0 °F 93% 30.09 in - ENE 1.2 mph - N/A   Clear
7:00 AM 43 °F - 41 °F 92% 30.12 in 6 mi ENE 1.2 mph - -  
7:15 AM 44.6 °F - 42.8 °F 93% 30.09 in - Calm Calm - N/A   Clear
7:45 AM 50.0 °F - 48.2 °F 94% 30.12 in 5.0 mi ENE 3.5 mph - N/A   Clear
8:15 AM 51.8 °F - 48.2 °F 88% 30.12 in 5.0 mi North 2.3 mph - N/A   Clear
8:45 AM 55.4 °F - 50.0 °F 82% 30.15 in 5.0 mi NNW 2.3 mph - N/A   Unknown
9:15 AM 57.2 °F - 51.8 °F 82% 30.15 in 4.3 mi Calm Calm - N/A   Unknown
9:45 AM 59.0 °F - 50.0 °F 72% 30.15 in 4.3 mi West 1.2 mph - N/A   Clear
10:00 AM 59 °F - 50 °F 63% 30.17 in 4 mi West 1.2 mph - -   Mist
10:15 AM 60.8 °F - 51.8 °F 72% 30.15 in 3.1 mi West 2.3 mph - N/A   Clear
10:45 AM 62.6 °F - 55.4 °F 77% 30.15 in 3.1 mi West 5.8 mph - N/A   Mist
11:15 AM 62.6 °F - 55.4 °F 77% 30.15 in 3.1 mi SW 6.9 mph - N/A   Clear
11:45 AM 62.6 °F - 55.4 °F 77% 30.15 in 3.1 mi SSW 6.9 mph - N/A   Mist
12:15 PM 62.6 °F - 53.6 °F 72% 30.15 in 4.3 mi SSW 6.9 mph - N/A   Clear
12:45 PM 64.4 °F - 53.6 °F 68% 30.15 in 4.3 mi SW 3.5 mph - N/A   Clear
1:00 PM 64 °F - 54 °F 61% 30.17 in 4 mi SW 3.5 mph - -   Mist
1:15 PM 64.4 °F - 53.6 °F 68% 30.15 in 5.0 mi SW 5.8 mph - N/A   Clear
1:45 PM 66.2 °F - 55.4 °F 68% 30.15 in 5.0 mi SSW 6.9 mph - N/A   Clear
2:15 PM 66.2 °F - 55.4 °F 68% 30.12 in 5.0 mi WSW 6.9 mph - N/A   Clear
2:45 PM 66.2 °F - 55.4 °F 68% 30.12 in 5.0 mi SSW 6.9 mph - N/A   Unknown
3:15 PM 66.2 °F - 53.6 °F 64% 30.12 in 5.0 mi SW 8.1 mph - N/A   Unknown
3:45 PM 66.2 °F - 55.4 °F 68% 30.12 in 5.0 mi SW 8.1 mph - N/A   Unknown
4:00 PM 66 °F - 55 °F 60% 30.14 in 5 mi SW 8.1 mph - -   Mist
4:15 PM 66.2 °F - 53.6 °F 64% 30.12 in - SW 8.1 mph - N/A   Clear
4:45 PM 64.4 °F - 51.8 °F 64% 30.12 in - WSW 6.9 mph - N/A   Clear
5:15 PM 62.6 °F - 50.0 °F 63% 30.12 in - WSW 4.6 mph - N/A   Clear
5:45 PM 59.0 °F - 50.0 °F 72% 30.12 in - SW 5.8 mph - N/A   Clear
6:15 PM 59.0 °F - 50.0 °F 72% 30.12 in - SW 4.6 mph - N/A   Clear
6:45 PM 57.2 °F - 51.8 °F 82% 30.15 in - SSW 3.5 mph - N/A   Clear
7:00 PM 57 °F - 51 °F 74% 30.17 in 12 mi SSW 3.5 mph - -  
7:15 PM 55.4 °F - 51.8 °F 88% 30.15 in - South 4.6 mph - N/A   Clear
7:45 PM 55.4 °F - 51.8 °F 88% 30.15 in - South 3.5 mph - N/A   Clear
8:15 PM 55.4 °F - 51.8 °F 88% 30.18 in - SSW 3.5 mph - N/A   Clear
8:45 PM 55.4 °F - 53.6 °F 94% 30.18 in - SSW 3.5 mph - N/A   Clear
9:15 PM 53.6 °F - 50.0 °F 88% 30.18 in - SSW 3.5 mph - N/A   Clear
9:45 PM 51.8 °F - 50.0 °F 94% 30.21 in - South 2.3 mph - N/A   Clear
10:00 PM 52 °F - 50 °F 89% 30.22 in 6 mi South 2.3 mph - -  
10:15 PM 51.8 °F - 50.0 °F 94% 30.21 in - SSE 2.3 mph - N/A   Clear
10:45 PM 50.0 °F - 48.2 °F 94% 30.21 in - SE 2.3 mph - N/A   Clear
11:15 PM 50.0 °F - 46.4 °F 87% 30.21 in - East 3.5 mph - N/A   Clear
11:45 PM 48.2 °F - 46.4 °F 93% 30.21 in - East 3.5 mph - N/A   Clear